Location: *
(46.1006°N, 1.8394°E)
Time: 20:31:11
(UTC+00:00)

Meteor 2-12 Rocket - Pass Details

Date: 20 September 2019
Orbit: 936 x 957 km, 82.5° (Epoch: 16 October)

Event Time Altitude Azimuth Distance (km) Brightness Sun altitude
Rises 20:36:16 0° 352° (N) 3,619 8.1 -27.2°
Reaches altitude 10° 20:38:47 10° 355° (N) 2,673 7.3 -27.5°
Enters shadow 20:44:35 70° 56° (ENE) 1,010 4.4 -28.4°
